Location: Newark
(36.0914°N, 36.0355°E)
Time: 13:01:05
(UTC+00:00)

X-37B - Visible Passes

Search period start: 24 September 2020 00:00
Search period end: 04 October 2020 00:00
Orbit: 386 x 387 km, 45.0° (Epoch: 18 September)

Date Brightness Start Highest point End Pass type
(mag) Time Alt. Az. Time Alt. Az. Time Alt. Az.
24 Sep 4.1 00:55:13 11° ENE 00:55:13 11° ENE 00:55:29 10° ENE visible
24 Sep 0.5 02:27:32 19° WNW 02:29:39 68° SSW 02:32:48 10° SE visible
25 Sep 2.2 01:32:12 34° E 01:32:12 34° E 01:34:13 10° ESE visible
26 Sep 1.6 02:09:20 31° SSW 02:09:20 31° SSW 02:11:53 10° SSE visible
30 Sep 2.1 16:22:20 10° S 16:24:48 21° SE 16:24:52 21° SE visible
01 Oct 1.4 16:59:28 10° WSW 17:01:49 47° WSW 17:01:49 47° WSW visible
02 Oct 1.1 16:01:05 10° SW 16:04:06 42° SE 16:06:19 16° ENE visible
02 Oct 3.8 17:37:57 10° W 17:38:37 14° WNW 17:38:37 14° WNW visible
03 Oct 1.4 16:39:02 10° WSW 16:42:06 47° NNW 16:42:58 36° NNE visible
